Location: Unspecified
(0.0000°N, 0.0000°E)
Time: 02:39:27
(UTC+00:00)

S-56A Canister/Altair - Pass Details

Date: 13 December 2018
Orbit: 633 x 2500 km, 38.9° (Epoch: 15 January)

Event Time Altitude Azimuth Distance (km) Brightness Sun altitude
Rises 12:47:02 0° 300° (WNW) 5,990 12.1 63.5°
Reaches altitude 10° 12:51:26 10° 296° (WNW) 4,810 11.8 63.0°
Maximum altitude 13:03:44 49° 225° (SW) 2,172 11.9 61.3°
Drops below altitude 10° 13:12:15 10° 152° (SSE) 3,374 11.1 60.1°
Sets 13:14:50 0° 146° (SE) 4,119 11.4 59.7°
